SES-7 (PROTOSTAR 2)

Last updated on Thu Mar 05 2026 00:02:55 GMT+0000 (Coordinated Universal Time)

1 34941U 09027A 26063.47336565 -.00000356 00000+0 00000+0 0 9998 2 34941 0.0209 102.8894 0001558 201.1578 136.8349 1.00271586 61572
UTC large
Height (km)
Speed (km/s)
/
Latitude / Longitude
Inclination (degrees)
Orbital Period (minutes)
Azimuth
Elevation
Range (km)
Doppler Factor

Next 0 passes for location: London (51.5072 / 0.1276)

Sorry there are no passes over London.